DW8750 Weather Reports


Display with metric or nautical units.
time (UTC)temp
F
wind
direction
speed
MPH
gust
MPH
rain 1hr
in
rain 24hr
in
rain mn
in
humidity
%
barometer
mb
20260510014714 71 303 8.0 14.0 0.00 0.00 0.00 79 1018.4
20260510013712 72 287 11.0 18.0 0.00 0.00 0.00 75 1018.3
20260510012712 73 319 13.0 24.0 0.00 0.00 0.00 72 1017.9
20260510011713 73 259 9.0 15.0 0.00 0.00 0.00 67 1017.5
20260510010710 73 298 12.0 20.0 0.00 0.00 0.00 62 1017.2
20260510005710 73 264 16.0 27.0 0.00 0.00 0.00 60 1016.7
20260510004704 73 263 16.0 28.0 0.00 0.00 0.00 59 1015.9
20260510003704 72 234 12.0 25.0 0.00 0.00 0.00 61 1014.7
20260510002705 71 247 20.0 37.0 0.00 0.00 0.00 65 1014.9
20260510001704 70 263 16.0 31.0 0.00 0.00 0.00 66 1014.9
20260510000706 71 277 5.0 12.0 0.00 0.00 0.00 62 1013.5
20260509234704 71 165 8.0 17.0 0.00 0.00 0.00 62 1012.5
20260509233702 71 236 6.0 12.0 0.00 0.00 0.00 62 1012.3
20260509232706 71 217 4.0 11.0 0.00 0.00 0.00 62 1012.4
20260509231702 70 208 4.0 14.0 0.00 0.00 0.00 63 1012.5
20260509230703 71 165 6.0 11.0 0.00 0.00 0.00 63 1012.9
20260509225706 70 194 6.0 11.0 0.00 0.00 0.00 65 1013.2
20260509224704 70 188 6.0 14.0 0.00 0.00 0.00 65 1013.4
20260509223702 71 221 8.0 16.0 0.00 0.00 0.00 64 1013.6
20260509222702 70 199 6.0 13.0 0.00 0.00 0.00 65 1013.6
20260509221701 70 173 7.0 15.0 0.00 0.00 0.00 66 1013.7
20260509220701 70 194 3.0 8.0 0.00 0.00 0.00 67 1013.9
20260509213655 69 209 5.0 11.0 0.00 0.00 0.00 70 1014.3
20260509212655 69 179 4.0 6.0 0.00 0.00 0.00 72 1014.4
20260509211653 69 212 3.0 9.0 0.00 0.00 0.00 73 1014.4
20260509210653 69 149 2.0 5.0 0.00 0.00 0.00 75 1014.6
20260509205653 69 208 2.0 5.0 0.00 0.00 0.00 74 1014.6
20260509204654 69 202 2.0 5.0 0.00 0.00 0.00 75 1014.8
20260509203653 69 200 3.0 6.0 0.00 0.00 0.00 76 1015.0
20260509201655 69 152 2.0 5.0 0.00 0.00 0.00 76 1015.2
20260509195646 69 111 3.0 6.0 0.00 0.00 0.00 76 1015.7
20260509194646 68 183 1.0 4.0 0.00 0.00 0.00 77 1015.9
20260509193649 68 215 1.0 4.0 0.00 0.00 0.00 78 1016.1
20260509192647 68 334 0.0 2.0 0.00 0.00 0.00 79 1015.8
20260509191647 69 334 0.0 2.0 0.00 0.00 0.00 80 1015.9
20260509190648 69 334 0.0 2.0 0.00 0.00 0.00 81 1015.9
20260509185644 69 334 1.0 4.0 0.00 0.00 0.00 80 1016.0
20260509182646 69 13 0.0 3.0 0.00 0.00 0.00 75 1015.6
20260509181646 70 13 0.0 0.0 0.00 0.00 0.00 76 1015.8
20260509180642 70 13 0.0 1.0 0.00 0.00 0.00 74 1015.7
20260509175643 70 13 0.0 2.0 0.00 0.00 0.00 73 1015.8
20260509174643 71 13 1.0 3.0 0.00 0.00 0.00 72 1016.0
20260509173641 70 13 1.0 3.0 0.00 0.00 0.00 66 1016.0
20260509171636 71 13 2.0 4.0 0.00 0.00 0.00 68 1016.0
20260509165637 71 28 3.0 6.0 0.00 0.00 0.00 67 1015.7
20260509163634 72 80 2.0 4.0 0.00 0.00 0.00 60 1015.7
20260509162634 72 42 3.0 6.0 0.00 0.00 0.00 60 1015.8
20260509161635 72 25 5.0 8.0 0.00 0.00 0.00 60 1015.7
20260509160634 72 68 5.0 9.0 0.00 0.00 0.00 61 1015.7
20260509155638 72 40 6.0 10.0 0.00 0.00 0.00 62 1016.0
20260509154636 72 43 6.0 9.0 0.00 0.00 0.00 63 1016.0
20260509153630 72 74 6.0 10.0 0.00 0.00 0.00 64 1016.2
20260509152636 72 77 5.0 10.0 0.00 0.00 0.00 64 1016.4
20260509151632 72 338 5.0 11.0 0.00 0.00 0.00 66 1016.6
20260509150633 72 29 6.0 11.0 0.00 0.00 0.00 67 1016.6
20260509145629 72 41 7.0 11.0 0.00 0.00 0.00 66 1016.6
20260509144630 72 52 7.0 12.0 0.00 0.00 0.00 65 1016.7
20260509143630 73 55 6.0 13.0 0.00 0.00 0.00 66 1016.6
20260509142630 72 42 6.0 11.0 0.00 0.00 0.00 67 1016.6
20260509141629 72 63 5.0 10.0 0.00 0.00 0.00 66 1016.8
20260509135628 73 29 7.0 14.0 0.00 0.00 0.00 67 1017.0
20260509134628 73 61 7.0 12.0 0.00 0.00 0.00 65 1017.0
20260509133628 74 63 6.0 13.0 0.00 0.00 0.00 62 1016.9
20260509132632 74 27 6.0 12.0 0.00 0.00 0.00 63 1016.9
20260509131629 73 24 8.0 13.0 0.00 0.00 0.00 64 1016.9
20260509130629 73 43 7.0 14.0 0.00 0.00 0.00 65 1016.9
20260509125628 73 77 7.0 13.0 0.00 0.00 0.00 64 1016.8
20260509124628 73 63 7.0 11.0 0.00 0.00 0.00 63 1016.7
20260509123628 73 76 8.0 14.0 0.00 0.00 0.00 61 1016.8
20260509122629 74 80 7.0 14.0 0.00 0.00 0.00 61 1016.8
20260509121628 74 55 7.0 14.0 0.00 0.00 0.00 64 1016.8
20260509120628 74 14 7.0 11.0 0.00 0.00 0.00 66 1016.8
20260509114627 73 355 7.0 12.0 0.00 0.00 0.00 64 1017.0
20260509112628 72 355 6.0 10.0 0.00 0.00 0.00 69 1017.2
20260509110632 72 355 8.0 13.0 0.00 0.00 0.00 70 1017.2
20260509105630 72 350 8.0 13.0 0.00 0.00 0.00 70 1017.3
20260509104627 72 38 7.0 12.0 0.00 0.00 0.00 70 1017.4
20260509103628 72 20 6.0 11.0 0.00 0.00 0.00 70 1017.4
20260509102627 72 355 5.0 11.0 0.00 0.00 0.00 70 1017.7
20260509101629 72 321 5.0 9.0 0.00 0.00 0.00 70 1017.7
20260509100631 71 54 5.0 9.0 0.00 0.00 0.00 71 1017.7
20260509095631 71 332 4.0 9.0 0.00 0.00 0.00 72 1017.8
20260509094629 71 5 4.0 8.0 0.00 0.00 0.00 72 1017.8
20260509093628 71 311 3.0 7.0 0.00 0.00 0.00 72 1017.9
20260509091629 70 330 4.0 9.0 0.00 0.00 0.00 75 1018.0
20260509090627 69 317 4.0 9.0 0.00 0.00 0.00 78 1018.1
20260509085628 68 329 4.0 9.0 0.00 0.00 0.00 77 1018.1
20260509084629 67 329 5.0 9.0 0.00 0.00 0.00 79 1018.1
20260509083627 67 22 4.0 9.0 0.00 0.00 0.00 81 1018.2
20260509082627 67 342 4.0 8.0 0.00 0.00 0.00 81 1018.3
20260509080621 66 355 4.0 10.0 0.00 0.00 0.00 83 1018.3
20260509075621 67 355 5.0 9.0 0.00 0.00 0.00 83 1018.3
20260509074623 67 343 6.0 11.0 0.00 0.00 0.00 84 1018.2
20260509073621 66 320 6.0 10.0 0.00 0.00 0.00 85 1018.1
20260509072619 66 311 7.0 13.0 0.00 0.00 0.00 85 1018.2
20260509070618 66 335 8.0 12.0 0.00 0.00 0.00 85 1018.2
20260509065611 66 328 7.0 12.0 0.00 0.00 0.00 85 1018.2
20260509064610 65 324 6.0 11.0 0.00 0.00 0.00 85 1018.2
20260509062612 65 285 3.0 7.0 0.00 0.00 0.00 85 1018.2
20260509061609 65 263 3.0 6.0 0.00 0.00 0.00 85 1018.0
20260509060608 65 329 4.0 9.0 0.00 0.00 0.00 85 1017.8
20260509055612 65 307 4.0 7.0 0.00 0.00 0.00 85 1017.9
20260509054609 65 283 3.0 8.0 0.00 0.00 0.00 85 1017.8
20260509053609 65 258 1.0 4.0 0.00 0.00 0.00 85 1017.7
20260509052609 65 101 0.0 2.0 0.00 0.00 0.00 85 1017.7
20260509051608 65 108 0.0 2.0 0.00 0.00 0.00 86 1017.6
20260509045611 65 255 1.0 2.0 0.00 0.00 0.00 85 1017.2
20260509044609 65 255 0.0 2.0 0.00 0.00 0.00 85 1017.2
20260509043608 65 255 0.0 2.0 0.00 0.00 0.00 85 1017.1
20260509042607 65 255 1.0 3.0 0.00 0.00 0.00 85 1017.0
20260509035606 65 281 2.0 4.0 0.00 0.00 0.00 85 1016.9
20260509034603 65 238 3.0 5.0 0.00 0.00 0.00 85 1016.8
20260509033603 65 266 2.0 4.0 0.00 0.00 0.00 85 1016.8
20260509032600 64 213 2.0 4.0 0.00 0.00 0.00 85 1016.8
20260509031558 64 229 1.0 4.0 0.00 0.00 0.00 84 1016.6
20260509030557 64 194 2.0 4.0 0.00 0.00 0.00 84 1016.6
20260509025556 64 175 3.0 6.0 0.00 0.00 0.00 83 1016.5
20260509024554 63 237 1.0 4.0 0.00 0.00 0.00 83 1016.5
20260509023554 63 237 2.0 4.0 0.00 0.00 0.00 83 1016.5
20260509021554 63 197 3.0 5.0 0.00 0.00 0.00 82 1016.4